This is the latest recevied weather packets stored in our database for station/object KM5VY. If no packets are shown the sender has not sent any weather packets the latest 10 day(s).
| Time | Temp. | Humidity | Pressure | Rain* | Wind** | Luminosity | Snow |
|---|---|---|---|---|---|---|---|
| 1777317747 | 21.11° C | 22% | 1015.2 hPa | 0 mm | - | - | - |
| 1777317146 | 21.11° C | 23% | 1015.2 hPa | 0 mm | - | - | - |
| 1777316545 | 21.11° C | 23% | 1015.2 hPa | 0 mm | - | - | - |
| 1777315944 | 20.56° C | 23% | 1015.2 hPa | 0 mm | - | - | - |
| 1777315343 | 20.56° C | 23% | 1015.9 hPa | 0 mm | - | - | - |
| 1777314743 | 20° C | 24% | 1015.9 hPa | 0 mm | - | - | - |
| 1777314141 | 20° C | 24% | 1015.6 hPa | 0 mm | - | - | - |
| 1777313541 | 20° C | 24% | 1015.6 hPa | 0 mm | - | - | - |
| 1777313088 | 20° C | 25% | 1015.9 hPa | 0 mm | - | - | - |
| 1777312939 | 20° C | 25% | 1015.9 hPa | 0 mm | - | - | - |
| 1777312338 | 19.44° C | 26% | 1015.9 hPa | 0 mm | - | - | - |
| 1777311136 | 18.89° C | 27% | 1015.9 hPa | 0 mm | - | - | - |
| 1777310535 | 17.78° C | 27% | 1015.9 hPa | 0 mm | - | - | - |
| 1777309934 | 17.22° C | 28% | 1016.3 hPa | 0 mm | - | - | - |
| 1777309333 | 16.67° C | 28% | 1016.6 hPa | 0 mm | - | - | - |
| 1777308732 | 15.56° C | 30% | 1017.3 hPa | 0 mm | - | - | - |
| 1777308131 | 15° C | 31% | 1016.3 hPa | 0 mm | - | - | - |
| 1777306930 | 13.89° C | 33% | 1014.6 hPa | 0 mm | - | - | - |
| 1777306328 | 12.78° C | 34% | 1013.9 hPa | 0 mm | - | - | - |
| 1777305728 | 12.22° C | 36% | 1014.2 hPa | 0 mm | - | - | - |
| 1777305127 | 11.11° C | 38% | 1014.6 hPa | 0 mm | - | - | - |
| 1777304525 | 10.56° C | 38% | 1014.6 hPa | 0 mm | - | - | - |
| 1777303925 | 10° C | 39% | 1014.9 hPa | 0 mm | - | - | - |
| 1777303323 | 8.89° C | 41% | 1015.2 hPa | 0 mm | - | - | - |
| 1777302722 | 8.89° C | 42% | 1015.2 hPa | 0 mm | - | - | - |
* Rain latest hour (hover to see other rain measurements)
** Current wind speed in m/s (hover to see current wind gust speed)